| time (UTC) | temp C | wind direction | speed KPH | gust KPH | rain 1hr cm | rain 24hr cm | rain mn cm | humidity % | barometer mb |
| 20260505124525 | 14 | 106 | 0.0 | 1.6 | 0.00 | 0.00 | 0.00 | 57 | 1004.8 |
| 20260505123023 | 14 | 151 | 0.0 | 0.0 | 0.00 | 0.00 | 0.00 | 56 | 1004.7 |
| 20260505121520 | 15 | 127 | 0.0 | 4.8 | 0.00 | 0.00 | 0.00 | 56 | 1004.5 |
| 20260505120024 | 14 | 122 | 0.0 | 0.0 | 0.00 | 0.00 | 0.00 | 56 | 1004.2 |
| 20260505114514 | 15 | 133 | 0.0 | 6.4 | 0.00 | 0.00 | 0.00 | 55 | 1004.1 |
| 20260505113012 | 15 | 110 | 0.0 | 4.8 | 0.00 | 0.00 | 0.00 | 55 | 1004.1 |
| 20260505111511 | 15 | 106 | 0.0 | 4.8 | 0.00 | 0.00 | 0.00 | 55 | 1004.1 |
| 20260505101504 | 16 | 224 | 0.0 | 3.2 | 0.00 | 0.00 | 0.00 | 54 | 1003.8 |
| 20260505100004 | 15 | 111 | 0.0 | 4.8 | 0.00 | 0.00 | 0.00 | 55 | 1003.7 |
| 20260505094501 | 15 | 98 | 0.0 | 1.6 | 0.00 | 0.00 | 0.00 | 55 | 1003.6 |
| 20260505093058 | 16 | 117 | 0.0 | 3.2 | 0.00 | 0.00 | 0.00 | 53 | 1003.5 |
| 20260505091556 | 16 | 110 | 0.0 | 8.0 | 0.00 | 0.00 | 0.00 | 52 | 1003.4 |
| 20260505090058 | 17 | 89 | 0.0 | 4.8 | 0.00 | 0.00 | 0.00 | 51 | 1003.4 |
| 20260505084552 | 17 | 110 | 0.0 | 0.0 | 0.00 | 0.00 | 0.00 | 52 | 1003.4 |
| 20260505083101 | 17 | 106 | 0.0 | 1.6 | 0.00 | 0.00 | 0.00 | 51 | 1003.3 |
| 20260505081552 | 17 | 97 | 0.0 | 0.0 | 0.00 | 0.00 | 0.00 | 50 | 1003.3 |
| 20260505080044 | 18 | 98 | 0.0 | 0.0 | 0.00 | 0.00 | 0.00 | 48 | 1003.2 |
| 20260505074544 | 18 | 98 | 0.0 | 0.0 | 0.00 | 0.00 | 0.00 | 49 | 1003.1 |
| 20260505073040 | 17 | 146 | 0.0 | 0.0 | 0.00 | 0.00 | 0.00 | 50 | 1002.9 |
| 20260505071540 | 18 | 114 | 0.0 | 0.0 | 0.00 | 0.00 | 0.00 | 49 | 1002.7 |
| 20260505070044 | 18 | 115 | 0.0 | 1.6 | 0.00 | 0.00 | 0.00 | 49 | 1002.6 |
| 20260505064551 | 18 | 99 | 0.0 | 0.0 | 0.00 | 0.00 | 0.00 | 48 | 1002.6 |
| 20260505063033 | 18 | 108 | 0.0 | 0.0 | 0.00 | 0.00 | 0.00 | 46 | 1002.5 |
| 20260505061540 | 19 | 98 | 0.0 | 4.8 | 0.00 | 0.00 | 0.00 | 46 | 1002.4 |
| 20260505060032 | 19 | 105 | 0.0 | 0.0 | 0.00 | 0.00 | 0.00 | 45 | 1002.3 |
| 20260505054532 | 20 | 271 | 0.0 | 1.6 | 0.00 | 0.00 | 0.00 | 45 | 1002.3 |
| 20260505053031 | 20 | 108 | 0.0 | 1.6 | 0.00 | 0.00 | 0.00 | 44 | 1002.2 |
| 20260505051531 | 20 | 101 | 0.0 | 1.6 | 0.00 | 0.00 | 0.00 | 42 | 1002.1 |
| 20260505041533 | 22 | 107 | 1.6 | 4.8 | 0.00 | 0.00 | 0.00 | 38 | 1001.5 |
| 20260505040028 | 23 | 113 | 0.0 | 0.0 | 0.00 | 0.00 | 0.00 | 36 | 1001.2 |
| 20260505034527 | 23 | 285 | 0.0 | 9.7 | 0.00 | 0.00 | 0.00 | 34 | 1001.1 |
| 20260505033030 | 24 | 259 | 0.0 | 9.7 | 0.00 | 0.00 | 0.00 | 34 | 1000.8 |
| 20260505031527 | 25 | 257 | 0.0 | 14.5 | 0.00 | 0.00 | 0.00 | 33 | 1000.6 |
| 20260505030025 | 25 | 286 | 1.6 | 9.7 | 0.00 | 0.00 | 0.00 | 32 | 1000.2 |
| 20260505024538 | 25 | 226 | 1.6 | 8.0 | 0.00 | 0.00 | 0.00 | 30 | 1000.1 |
| 20260505023025 | 26 | 316 | 1.6 | 19.3 | 0.00 | 0.00 | 0.00 | 28 | 999.9 |
| 20260505021525 | 27 | 285 | 9.7 | 20.9 | 0.00 | 0.00 | 0.00 | 27 | 999.8 |
| 20260505020024 | 27 | 266 | 1.6 | 9.7 | 0.00 | 0.00 | 0.00 | 27 | 999.7 |
| 20260505014525 | 27 | 321 | 4.8 | 16.1 | 0.00 | 0.00 | 0.00 | 25 | 999.7 |
| 20260505013024 | 27 | 315 | 3.2 | 17.7 | 0.00 | 0.00 | 0.00 | 26 | 999.7 |
| 20260505011522 | 28 | 343 | 3.2 | 22.5 | 0.00 | 0.00 | 0.00 | 25 | 999.7 |
| 20260505010016 | 28 | 271 | 1.6 | 12.9 | 0.00 | 0.00 | 0.00 | 25 | 999.7 |
| 20260505004615 | 28 | 269 | 6.4 | 12.9 | 0.00 | 0.00 | 0.00 | 24 | 999.7 |
| 20260505003013 | 28 | 259 | 3.2 | 9.7 | 0.00 | 0.00 | 0.00 | 25 | 999.6 |
| 20260505001505 | 28 | 273 | 1.6 | 8.0 | 0.00 | 0.00 | 0.00 | 24 | 999.7 |
| 20260505000005 | 27 | 262 | 0.0 | 4.8 | 0.00 | 0.00 | 0.00 | 28 | 999.8 |
| 20260504234503 | 28 | 280 | 0.0 | 6.4 | 0.00 | 0.00 | 0.00 | 24 | 999.7 |
| 20260504233103 | 29 | 252 | 0.0 | 1.6 | 0.00 | 0.00 | 0.00 | 24 | 999.8 |
| 20260504231603 | 28 | 236 | 0.0 | 6.4 | 0.00 | 0.00 | 0.00 | 24 | 1000.0 |
| 20260504230052 | 28 | 283 | 0.0 | 6.4 | 0.00 | 0.00 | 0.00 | 23 | 1000.2 |
| 20260504224548 | 28 | 264 | 3.2 | 11.3 | 0.00 | 0.00 | 0.00 | 23 | 1000.3 |
| 20260504223046 | 28 | 335 | 1.6 | 11.3 | 0.00 | 0.00 | 0.00 | 24 | 1000.4 |
| 20260504221551 | 27 | 124 | 0.0 | 8.0 | 0.00 | 0.00 | 0.00 | 23 | 1000.5 |
| 20260504220040 | 28 | 86 | 0.0 | 6.4 | 0.00 | 0.00 | 0.00 | 24 | 1000.8 |
| 20260504214538 | 28 | 356 | 3.2 | 8.0 | 0.00 | 0.00 | 0.00 | 23 | 1000.8 |
| 20260504213035 | 28 | 92 | 0.0 | 1.6 | 0.00 | 0.00 | 0.00 | 22 | 1000.9 |
| 20260504211537 | 27 | 333 | 1.6 | 6.4 | 0.00 | 0.00 | 0.00 | 23 | 1001.2 |
| 20260504210049 | 27 | 140 | 0.0 | 8.0 | 0.00 | 0.00 | 0.00 | 24 | 1001.4 |
| 20260504204528 | 26 | 271 | 0.0 | 8.0 | 0.00 | 0.00 | 0.00 | 26 | 1001.6 |
| 20260504203032 | 26 | 5 | 0.0 | 9.7 | 0.00 | 0.00 | 0.00 | 27 | 1001.8 |
| 20260504201526 | 26 | 298 | 0.0 | 6.4 | 0.00 | 0.00 | 0.00 | 25 | 1002.0 |
| 20260504200021 | 26 | 53 | 0.0 | 12.9 | 0.00 | 0.00 | 0.00 | 25 | 1002.3 |
| 20260504194532 | 26 | 70 | 1.6 | 6.4 | 0.00 | 0.00 | 0.00 | 22 | 1002.4 |
| 20260504193019 | 26 | 352 | 0.0 | 8.0 | 0.00 | 0.00 | 0.00 | 25 | 1002.6 |
| 20260504191514 | 25 | 271 | 0.0 | 4.8 | 0.00 | 0.00 | 0.00 | 27 | 1002.8 |
| 20260504190012 | 25 | 264 | 0.0 | 6.4 | 0.00 | 0.00 | 0.00 | 25 | 1003.0 |
| 20260504184511 | 25 | 270 | 0.0 | 1.6 | 0.00 | 0.00 | 0.00 | 25 | 1003.2 |
| 20260504183006 | 25 | 264 | 0.0 | 1.6 | 0.00 | 0.00 | 0.00 | 29 | 1003.3 |
| 20260504181502 | 24 | 309 | 0.0 | 1.6 | 0.00 | 0.00 | 0.00 | 41 | 1003.4 |
| 20260504180159 | 23 | 312 | 0.0 | 6.4 | 0.00 | 0.00 | 0.00 | 40 | 1003.5 |
| 20260504174555 | 22 | 314 | 0.0 | 1.6 | 0.00 | 0.00 | 0.00 | 43 | 1003.4 |
| 20260504173100 | 20 | 267 | 0.0 | 1.6 | 0.00 | 0.00 | 0.00 | 45 | 1003.6 |
| 20260504171547 | 20 | 262 | 0.0 | 6.4 | 0.00 | 0.00 | 0.00 | 49 | 1003.7 |